TIME,DELAY(SENSOR),PRES,T(CTD),SAL,OXYGEN,RAWTEMP,T(OPTODE),TCPHASE,FLUOR,BETA(BETA700),BETA(BETA412),BETA(BETA440),CDOM,C(CSC),ED(ED412.40),ED(ED444.00),ED(ED489.70),ED(ED554.30),LU(LU411.80),LU(LU443.40),LU(LU489.60),LU(LU554.10),COMP,TILTX,TILTX(TILTY),CHECK
1352582541,5809,497.5199890136719000,6.6792001724243160,34.1241989135742200,83.7877883911132800,597.4857788085938000,6.6654529571533200,48.4341201782226560,52,103,90,79,80,15190,2147749558,2147421741,2148007451,2147873526,2147628306,2147082340,2148245403,2147194139,92,5,13,32136
1352582670,5811,486.4899902343750000,6.7490000724792480,34.1083984375000000,89.8120498657226600,595.5491943359375000,6.7279491424560550,47.7237892150878900,52,106,86,80,79,15190,2147746368,2147421330,2148002761,2147873801,2147631488,2147073325,2148242057,2147196397,18,5,12,43756
1352582809,5809,475.2799987792969000,6.8698000907897950,34.0992012023925800,95.8165130615234400,591.7756958007812000,6.8496208190917970,47.0105400085449200,51,103,90,80,79,15193,2147748900,2147422226,2148006299,2147870957,2147628598,2147076205,2148244525,2147197732,3462,4,13,31016
1352582980,5810,462.3800048828125000,6.9923000335693360,34.0830001831054700,104.1804962158203100,587.3801269531250000,6.9911842346191410,46.0663986206054700,51,104,87,80,78,15192,2147745453,2147423433,2148005961,2147871049,2147625664,2147079606,2148245860,2147196205,3560,4,13,24408
1352583109,5809,450.9500122070312500,7.1666998863220215,34.0839004516601560,111.1167984008789000,582.3314819335938000,7.1535592079162600,45.2822990417480500,51,103,88,81,78,15193,2147747620,2147421376,2148004452,2147873764,2147627739,2147077037,2148240256,2147193581,35,5,12,60058
1352583224,5809,440.6400146484375000,7.3710999488830570,34.0777015686035160,117.1994018554687500,575.8906860351562000,7.3603711128234860,44.5820808410644500,52,103,86,81,78,15194,2147743936,2147419748,2148004571,2147873810,2147628004,2147075977,2148236434,2147199561,1608,4,13,50419
1352583353,5808,429.4800109863281000,7.6652998924255370,34.0810012817382800,127.7106018066406200,566.8867187500000000,7.6488761901855470,43.4488410949707000,51,105,88,80,76,15193,2147743177,2147422372,2148005376,2147872740,2147625664,2147080210,2148241325,2147196269,2271,4,13,37869
1352583480,5806,418.2300109863281000,8.0353002548217770,34.0866012573242200,136.7808990478515600,555.5971069335938000,8.0096168518066400,42.4476509094238300,51,103,90,79,75,15191,2147744877,2147420041,2148004516,2147872484,2147623881,2147082880,2148240036,2147198217,2572,4,13,54979
1352583597,5807,407.4500122070312500,8.3228998184204100,34.0924987792968750,145.7212982177734400,546.1868286132812000,8.3094902038574220,41.5255088806152340,50,105,87,81,75,15191,2147744530,2147418806,2148003629,2147869412,2147621988,2147085558,2148235062,2147198619,248,4,13,20765
1352583724,5809,395.8399963378906000,8.5543003082275390,34.0979003906250000,153.5532989501953000,538.9794921875000000,8.5386753082275390,40.7639198303222660,50,105,87,80,75,15188,2147744466,2147418861,2147999616,2147873737,2147619382,2147089380,2148235044,2147199314,824,4,13,37871
1352583839,5810,385.6799926757812500,8.9098997116088870,34.1044006347656250,160.4082946777343800,527.6342773437500000,8.8986034393310550,40.0311584472656250,50,105,87,80,74,15188,2147738176,2147419181,2148002569,2147871469,2147619309,2147095625,2148237668,2147196809,1426,4,13,6278
1352583980,5806,374.2799987792969000,9.0810003280639650,34.1082992553710940,168.3115997314453000,521.8322143554688000,9.0822925567626950,39.3371582031250000,50,105,90,80,75,15191,2147737938,2147422144,2148000118,2147871460,2147618157,2147095954,2148228845,2147197778,522,5,13,4540
1352584119,5806,363.7500000000000000,9.4436998367309570,34.1128005981445300,177.4741973876953000,510.9505004882812500,9.4261178970336910,38.4921684265136700,50,109,91,81,73,15186,2147736155,2147419721,2148000594,2147870144,2147617536,2147093257,2148230473,2147198793,1280,4,13,22618
1352584267,5809,351.7500000000000000,9.6204996109008790,34.1130981445312500,182.3143005371093800,505.3981018066406000,9.6012229919433600,38.0631713867187500,49,106,91,82,72,15186,2147736228,2147420964,2148001417,2147873536,2147616630,2147094628,2148232128,2147199780,2199,5,13,43817
1352584382,5805,340.5899963378906000,9.9308004379272460,34.1194000244140600,186.7816925048828000,494.4988098144531000,9.9443206787109380,37.5773506164550800,50,105,88,80,73,15186,2147738541,2147421476,2148003849,2147873746,2147613568,2147098422,2148226624,2147200000,3586,4,13,35221
1352584497,5805,329.4500122070312500,10.1691999435424800,34.1214981079101560,191.7326049804687500,487.5513916015625000,10.1625900268554690,37.1356010437011700,49,106,89,80,71,15189,2147733686,2147423890,2148003254,2147871552,2147611611,2147104036,2148226624,2147200219,773,4,13,12888
1352584614,5810,318.2399902343750000,10.5734996795654300,34.1082992553710940,195.3937072753906200,472.7721862792969000,10.6258697509765620,36.6547889709472660,50,102,88,80,71,15190,2147734564,2147424502,2148007963,2147871113,2147611611,2147107428,2148224758,2147201444,1050,3,13,53609
1352584741,5807,306.7200012207031000,10.9617996215820310,34.1095008850097660,201.4548950195312500,461.6499938964844000,10.9736003875732420,36.0943717956543000,49,101,87,79,71,15191,2147731876,2147422756,2148010240,2147872502,2147609270,2147112923,2148225600,2147201938,3231,4,13,45694
1352584870,5806,295.7600097656250000,11.4935998916625980,34.1287994384765600,213.4526062011718800,445.1081848144531000,11.4894199371337890,35.1168212890625000,48,103,89,80,69,15192,2147733184,2147425746,2148018605,2147871497,2147606784,2147119616,2148224283,2147203419,966,4,13,15678
1352585009,5806,284.8599853515625000,11.8958997726440430,34.1487998962402340,221.1945037841797000,432.3819885253906000,11.8852195739746100,34.4807090759277340,47,104,88,80,69,15190,2147727606,2147425472,2148025234,2147871341,2147604909,2147118893,2148226660,2147207323,405,4,13,41431
1352585192,5810,272.8200073242187500,13.3157997131347660,34.2256011962890600,210.8059997558593800,387.0851135253906000,13.2875204086303710,34.3544006347656250,49,108,83,80,70,15184,2147730011,2147430930,2148035218,2147871597,2147600182,2147125558,2148226843,2147204772,955,3,13,7100
1352585343,5810,261.7600097656250000,14.1526002883911130,34.3036003112793000,209.7250976562500000,359.4642028808594000,14.1383695602417000,33.9948310852050800,49,105,90,81,68,15181,2147726710,2147434806,2148055122,2147871963,2147594432,2147136704,2148230509,2147208512,1461,4,14,45283
1352585502,5810,248.7899932861328000,14.9296998977661130,34.3802986145019500,216.5570983886718800,333.2138977050781000,14.9446296691894530,33.2200508117675800,49,103,88,80,66,15180,2147719826,2147448978,2148080960,2147871149,2147590555,2147149403,2148236845,2147208905,2728,3,13,6058
1352585617,5807,237.6699981689453000,15.6198997497558600,34.4556007385253900,218.1280059814453000,310.6412963867187500,15.6364402770996100,32.8042106628418000,49,103,88,81,67,15185,2147721005,2147461824,2148118144,2147872804,2147587501,2147165028,2148248896,2147211547,1876,4,14,37041
1352585732,5811,226.6399993896484400,16.0792007446289060,34.5223999023437500,219.9916992187500000,291.4552917480469000,16.2236099243164060,32.4279899597168000,48,103,89,80,66,15180,2147724608,2147483922,2148166336,2147874386,2147584868,2147182656,2148273252,2147214866,3191,4,13,39630
1352585849,5809,216.2100067138672000,17.3439998626709000,34.6958007812500000,221.5928039550781200,255.1378021240234400,17.3336105346679700,31.8299293518066400,49,101,92,81,65,15176,2147727131,2147510226,2148228498,2147872045,2147582509,2147203858,2148296539,2147216594,3413,3,15,60243
1352585976,5807,204.8300018310547000,18.1511993408203120,34.8241996765136700,221.5695037841797000,226.2803039550781200,18.2149295806884770,31.4314994812011720,50,103,89,79,66,15179,2147732964,2147559936,2148325321,2147872064,2147579373,2147244160,2148345828,2147222198,512,3,14,36195
1352586067,5808,196.8200073242187500,18.9237995147705080,34.9514999389648440,223.3220977783203000,203.7330932617187500,18.9035491943359380,31.0337295532226560,50,105,88,80,65,15172,2147745097,2147603922,2148418907,2147873398,2147582564,2147277421,2148386806,2147224411,805,3,14,11167
1352586142,5807,190.8699951171875000,19.2938995361328120,35.0144996643066400,225.3247070312500000,191.2335968017578000,19.2854194641113280,30.7635097503662100,50,104,89,82,64,15167,2147749933,2147637769,2148490770,2147873389,2147586889,2147304192,2148425252,2147227318,816,3,14,46322
1352586197,5807,186.8000030517578000,19.4703006744384770,35.0448989868164060,226.0229034423828000,185.3018951416015600,19.4666900634765620,30.6490001678466800,50,105,89,81,63,15169,2147762752,2147676544,2148561728,2147873974,2147590701,2147331849,2148461476,2147228626,790,3,15,8817
1352586252,5805,182.8000030517578000,19.6604003906250000,35.0765991210937500,226.8206939697265600,179.1208038330078000,19.6556205749511720,30.5264091491699220,52,102,88,80,64,15168,2147770377,2147700818,2148617755,2147872118,2147595794,2147356205,2148492242,2147236032,1667,3,15,6552
1352586307,5810,178.6399993896484400,19.7140007019042970,35.0871009826660160,227.7736053466797000,176.8959045410156200,19.7236404418945300,30.4493904113769530,52,104,87,81,63,15165,2147785344,2147740589,2148695954,2147874514,2147598610,2147389293,2148532096,2147237787,2221,3,15,24667
1352586362,5809,174.3800048828125000,20.0452003479003900,35.1287002563476560,226.8894958496093800,166.8540954589843800,20.0307292938232420,30.3601703643798830,55,102,88,80,62,15165,2147800576,2147787529,2148788827,2147872384,2147606043,2147422299,2148581376,2147243501,2247,2,15,10365
1352586417,5808,170.3099975585937500,20.1977005004882800,35.1534004211425800,227.0518035888672000,161.4826965332031200,20.1950492858886720,30.2809696197509770,56,106,86,80,63,15165,2147818395,2147830738,2148857536,2147873618,2147614235,2147449956,2148620141,2147248265,1927,2,15,32723
1352586496,5804,164.7500000000000000,20.3383007049560550,35.1738014221191400,228.3963928222656200,156.9586944580078000,20.3334903717041000,30.1550807952880860,58,106,91,81,62,15159,2147864118,2147935085,2149071542,2147875355,2147633554,2147519122,2148725778,2147251995,1783,2,15,5163
1352586551,5809,161.1600036621093800,20.4950008392334000,35.1931991577148440,228.9441070556640600,153.3773040771484400,20.4431190490722660,30.0811595916748050,59,107,86,80,62,15153,2147888832,2147999625,2149197193,2147875355,2147648082,2147567881,2148788297,2147255497,2079,2,15,48232
1352586618,5810,157.0500030517578000,20.6425991058349600,35.2099990844726560,229.3193054199218800,147.4817962646484400,20.6236305236816400,29.9855003356933600,61,104,91,81,63,15155,2147927670,2148081252,2149338029,2147878052,2147666953,2147612306,2148860059,2147261193,1732,3,15,12109
1352586685,5807,153.0800018310547000,20.7773990631103500,35.2271995544433600,229.6459960937500000,142.9990997314453000,20.7609291076660160,29.9107894897460940,66,106,88,80,62,15147,2147971977,2148161901,2149496786,2147879524,2147690550,2147666560,2148936749,2147269385,1887,2,15,13014
1352586752,5807,149.2700042724609400,20.7780990600585940,35.2285003662109400,230.6562042236328000,142.5964050292968800,20.7732601165771500,29.8566093444824220,65,107,90,81,62,15148,2148038262,2148303488,2149756553,2147879085,2147719378,2147758756,2149058249,2147274953,1591,2,15,60784
1352586830,5808,145.4100036621093800,20.9158992767334000,35.2426986694335940,230.6365051269531200,138.5379028320312500,20.8976097106933600,29.8047599792480470,68,105,90,81,62,15150,2148114029,2148448877,2150005686,2147882084,2147755748,2147845165,2149177636,2147285312,1021,2,15,4030
1352586945,5811,142.0800018310547000,21.0716991424560550,35.2555007934570300,231.3876953125000000,133.7068939208984400,21.0456790924072270,29.7056407928466800,72,110,91,81,62,15145,2148199862,2148599049,2150262966,2147887725,2147796928,2147939483,2149292918,2147293851,925,2,15,19769
1352587128,5807,137.8000030517578000,21.2565994262695300,35.2715988159179700,233.3580932617187500,126.9837036132812500,21.2518501281738280,29.5243701934814450,76,110,89,81,62,15133,2148345435,2148818980,2150624329,2147888868,2147863277,2148061339,2149470601,2147309001,3269,2,16,39536
1352587219,5808,133.9700012207031200,21.4232997894287100,35.2822990417480500,234.5785980224609400,122.1668014526367200,21.3996295928955080,29.4045906066894530,83,111,90,83,63,15128,2148492269,2149056164,2151030555,2147895862,2147927524,2148184576,2149634605,2147319286,638,3,15,35893
1352587322,5810,129.7899932861328000,21.6947002410888670,35.2789993286132800,237.5222015380859400,113.0968017578125000,21.6780605316162100,29.1506404876709000,89,112,90,81,62,15119,2148702336,2149400667,2151598912,2147901915,2148015158,2148363730,2149877056,2147338331,1172,2,15,22659
1352587437,5809,125.7699966430664000,21.8603992462158200,35.2815017700195300,239.9470977783203000,107.5335006713867200,21.8489704132080080,28.9680995941162100,100,116,93,83,61,15106,2148942244,2149766253,2152196068,2147914870,2148114779,2148528182,2150114002,2147358253,627,2,15,48722
1352587540,5806,121.5199966430664000,21.8950996398925780,35.2747001647949200,241.6165008544922000,106.0887985229492200,21.8933696746826170,28.8737201690673830,103,118,89,82,61,15094,2149247670,2150201865,2152895698,2147925403,2148234029,2148700726,2150373302,2147378898,2867,2,16,34908
1352587643,5807,117.8600006103515600,22.1093006134033200,35.2630004882812500,242.6013031005859400,98.8349761962890600,22.1163902282714840,28.7373790740966800,118,121,91,83,62,15082,2149640429,2150774070,2153759542,2147942317,2148385508,2148926829,2150687414,2147409408,2656,2,15,64374
1352587758,5806,113.6600036621093800,22.2847995758056640,35.2658004760742200,244.5664062500000000,93.5640335083007800,22.2785606384277340,28.5827999114990230,124,122,89,83,60,15063,2150212041,2151579721,2154876342,2147963940,2148581266,2149154925,2150933485,2147439506,2366,2,15,30137
1352587837,5810,109.6100006103515600,22.3528995513916000,35.2663993835449200,245.6284027099609400,91.3948669433593800,22.3453197479248050,28.5082702636718750,129,124,93,83,60,15054,2151143094,2152916955,2156821184,2148007808,2148981504,2149780909,2151783899,2147515821,2230,2,15,63323
1352587916,5807,105.2399978637695300,22.4466991424560550,35.2755012512207000,246.0785064697265600,88.0073928833007800,22.4496192932128900,28.4458999633789060,130,126,92,84,61,15044,2149452059,2149870619,2151375862,2147922422,2148283657,2148342628,2149565001,2147336064,2119,2,15,24003
1352587983,5810,101.6699981689453100,22.6098003387451170,35.2696990966796900,246.6804046630859400,83.0510635375976600,22.6022891998291000,28.3571891784667970,140,128,92,84,61,15024,2153268443,2155827382,2160498285,2148093174,2149812470,2150901769,2153089819,2147646427,2066,2,15,30690
1352588052,5809,98.4700012207031200,22.8899993896484380,35.2812995910644500,247.3074035644531200,74.4553833007812500,22.8673000335693360,28.2223091125488280,129,128,90,85,61,15024,2154607030,2157574089,2162622116,2148158080,2150326756,2151596406,2153927451,2147731126,3029,2,16,45713
1352588107,5811,96.3700027465820300,22.9792003631591800,35.2832984924316400,248.7678070068359400,71.3561477661132800,22.9629192352294920,28.1199607849121100,128,127,93,84,60,15025,2155687369,2159001316,2164348745,2148207168,2150779538,2152203218,2154597046,2147799241,253,2,15,41346
1352588162,5806,94.7099990844726600,23.0069999694824220,35.2820014953613300,249.4638977050781200,70.1944732666015600,22.9987697601318360,28.0753803253173830,120,127,92,84,59,15023,2156760192,2160386258,2165924224,2148259593,2151245046,2152807158,2155281280,2147872036,3566,2,16,27687
1352588217,5809,93.2900009155273400,23.1567001342773440,35.2761993408203100,250.1237945556640600,66.6564025878906200,23.1079998016357420,28.0030097961425780,113,126,92,84,61,15032,2155292050,2158017508,2162135268,2148185298,2150688301,2151821833,2153847323,2147742683,2987,2,15,23696
1352588391,5805,91.5500030517578100,23.3931007385253900,35.2753982543945300,251.6564025878906200,57.5959281921386700,23.3879508972167970,27.8252296447753900,98,129,92,86,61,15034,2159568073,2163853449,2169355364,2148366052,2152671012,2154633874,2157026066,2148035392,652,2,16,30981
1352588482,5807,89.0599975585937500,23.5688991546630860,35.2574996948242200,251.9237060546875000,52.7601814270019500,23.5375099182128900,27.7541294097900400,91,125,92,84,59,15038,2160246665,2164343981,2169280850,2148388626,2153164260,2155176804,2157393828,2148078509,225,2,15,61724
1352588549,5806,87.2200012207031200,23.6352996826171880,35.2464981079101560,251.7447052001953000,50.3282394409179700,23.6127700805664060,27.7317790985107420,95,124,92,85,60,15035,2163624914,2168649353,2174034185,2148548361,2154773814,2157228041,2159401654,2148271433,896,2,16,32583
1352588616,5807,85.1200027465820300,24.0646991729736330,35.2364997863769500,249.9774017333984400,38.0583801269531250,23.9928798675537100,27.6561203002929700,95,129,91,83,58,15032,2165245257,2170646902,2175957760,2148643264,2155658349,2158250358,2160292854,2148372333,1336,2,15,42670
1352588695,5808,82.8300018310546900,24.2696990966796880,35.2643013000488300,249.5610961914062500,30.3670997619628900,24.2315292358398440,27.5795402526855470,89,127,93,86,60,15030,2167713874,2173364653,2178838208,2148811730,2156994038,2159891154,2161890368,2148538048,560,2,16,49125
1352588750,5805,80.8700027465820300,24.3509998321533200,35.2708015441894500,250.3146057128906200,27.9897499084472660,24.3053607940673830,27.5180892944335940,85,126,91,85,60,15032,2169558912,2175467904,2180994770,2148942683,2158036315,2161138496,2163029522,2148658505,282,2,16,43227
1352588805,5809,79.1299972534179700,24.4291992187500000,35.2625999450683600,249.9618988037109400,24.7086696624755860,24.4072895050048830,27.4929790496826170,87,126,94,86,60,15029,2171273362,2177567936,2183138020,2149076672,2159164233,2162493348,2164252809,2148792914,851,2,16,47349
1352588872,5807,77.2699966430664000,24.4790000915527340,35.2602005004882800,249.2532958984375000,23.0564308166503900,24.4586505889892580,27.5028495788574220,86,127,93,84,57,15037,2173739757,2180549878,2186440182,2149266797,2160472850,2164096795,2165737718,2148957476,787,2,16,6007
1352588963,5811,75.3000030517578100,24.5515003204345700,35.2519989013671900,248.6121063232422000,21.0831794738769530,24.5200004577636720,27.5061607360839840,83,124,94,85,59,15035,2176099757,2183247113,2188862445,2149456329,2161855040,2165625627,2166948233,2149096457,1168,2,16,27010
1352589041,5808,73.1100006103515600,24.7954006195068360,35.2314987182617200,247.0153961181640600,13.8340702056884770,24.7455596923828120,27.4860191345214840,78,123,94,84,58,15039,2179141202,2186593243,2191914578,2149750345,2163811382,2167846418,2168843638,2149332982,1715,2,16,37733
1352589108,5805,71.1900024414062500,24.8953990936279300,35.2210998535156250,245.1289978027343800,9.4721584320068360,24.8814296722412100,27.5143699645996100,74,122,91,85,58,15041,2181875739,2188978331,2194059904,2149971958,2165202688,2169410550,2170223817,2149478409,2856,2,16,21715
1352589199,5809,69.5299987792968800,24.9974994659423830,35.2024993896484400,243.8003997802734400,6.4798331260681150,24.9746894836425780,27.5354003906250000,73,121,93,84,59,15041,2178728292,2184120502,2187637467,2149770678,2163343780,2166513316,2166561033,2149159076,2938,1,16,36988
1352589373,5809,67.0699996948242200,25.3038997650146500,35.2135009765625000,241.0962982177734400,-3.3355588912963867,25.2809906005859380,27.5338401794433600,68,121,92,85,58,15025,2192373814,2199323181,2203462436,2150792475,2171017280,2175850331,2175227968,2150095378,3428,1,16,41266
1352589452,5810,65.3600006103515600,25.6725006103515620,35.2386016845703100,241.1934051513672000,-11.4330101013183600,25.5341091156005860,27.4304695129394530,68,123,92,86,59,15038,2196964324,2203778550,2207108708,2151175414,2173972662,2179066496,2177769307,2150370532,2823,2,15,31461
1352589650,5808,63.0699996948242200,25.9480991363525400,35.2417984008789060,240.5794982910156200,-24.6542797088623050,25.9482803344726560,27.2962608337402340,67,126,94,86,53,15027,2205311232,2211799369,2214520539,2151961828,2179797046,2185156224,2182271360,2150919396,233,1,16,44237
1352589717,5808,61.1899986267089840,26.4258003234863280,35.2574005126953100,236.3166046142578000,-38.4609184265136700,26.3820095062255860,27.3169898986816400,63,126,92,85,58,15025,2206309092,2212427117,2214704722,2152247762,2182136969,2186986377,2183063616,2151068864,3372,1,16,47967
1352589999,5807,58.9799995422363300,26.5165996551513670,35.2644996643066400,231.8905944824218800,-42.6909484863281250,26.5151500701904300,27.4655303955078120,61,125,90,86,55,15029,2212676681,2219554797,2221943405,2153205385,2190967524,2195307629,2188626962,2151672969,3129,1,16,64291
1352590054,5811,56.8100013732910160,26.5177993774414060,35.2655982971191400,231.6000061035156200,-42.7878189086914060,26.5182094573974600,27.4774398803710940,62,126,94,85,58,15028,2217261595,2224861632,2227476544,2154167652,2197736795,2201928283,2193233929,2152204873,2808,1,17,51408
1352590109,5809,54.4399986267089840,26.5247993469238280,35.2659988403320300,231.4087066650390600,-42.9963188171386700,26.5247707366943360,27.4838600158691400,59,123,91,85,57,15026,2220665581,2228077586,2229995702,2155403776,2204997220,2208799012,2197828077,2152806134,2474,2,16,43796
1352590164,5809,51.9199981689453100,26.5282993316650400,35.2661018371582000,231.2579956054687500,-43.1486587524414060,26.5295696258544920,27.4888496398925780,60,124,95,85,58,15023,2228956032,2237957275,2241044745,2157168274,2214454006,2218107940,2204492909,2153756955,2337,2,16,48893
1352590219,5809,49.2599983215332000,26.5279998779296880,35.2661018371582000,231.4868011474609400,-43.1269302368164060,26.5288791656494140,27.4786090850830080,59,125,93,87,54,15017,2233394413,2241929353,2244686793,2158401060,2222081179,2224892306,2208859309,2154416420,2507,1,17,8663
1352590297,5810,44.6599998474121100,26.5296993255615230,35.2663002014160160,231.5057067871093800,-43.1835708618164060,26.5306701660156250,27.4769001007080080,58,123,92,85,57,15023,2246469467,2255331501,2258590848,2163305280,2240390985,2242317504,2221173165,2156354468,2606,1,16,64999
1352590352,5809,40.8499984741210940,26.5291004180908200,35.2654991149902340,231.4519958496093800,-43.1556396484375000,26.5297908782959000,27.4799003601074220,58,124,91,85,57,15019,2257964233,2267478747,2270907401,2167731181,2258486875,2260143771,2234242432,2158687881,2396,1,16,44944
1352590407,5809,36.9199981689453100,26.5272006988525400,35.2657012939453100,231.5484008789062500,-43.0468711853027340,26.5263595581054700,27.4766197204589840,58,124,93,86,56,15026,2275575460,2287633307,2293074459,2175366198,2276954980,2276839405,2245452288,2161298770,2238,1,16,42467
1352590462,5808,33.1699981689453100,26.5259990692138670,35.2663002014160160,231.6327972412109400,-43.0252304077148440,26.5256805419921880,27.4730491638183600,58,122,93,86,58,15029,2294697755,2308692781,2315436443,2185863542,2300745810,2299729673,2261817042,2164989165,2096,1,17,7420
1352590517,5810,29.4300003051757800,26.5305004119873050,35.2650985717773440,231.6049957275390600,-43.1187591552734400,26.5286293029785160,27.4732494354248050,56,123,94,85,60,15023,2307983094,2322460489,2329889426,2196742592,2320408338,2317780525,2274571611,2168566125,2032,0,16,51423
1352590572,5807,25.8199996948242200,26.5305004119873050,35.2659988403320300,231.5774993896484400,-43.2200584411621100,26.5318202972412100,27.4733009338378900,55,123,93,83,54,15027,2327524196,2343365238,2351801005,2214023469,2344643977,2340325074,2290794605,2173392722,1865,2,16,53424
1352590646,5811,21.3199996948242200,26.5330009460449220,35.2659988403320300,231.7131042480468800,-43.2756309509277340,26.5335693359375000,27.4662990570068360,55,123,92,85,56,15024,2353125677,2371156150,2382183606,2237239579,2375894738,2369815698,2311571053,2179835702,1709,1,16,32051
